| time (UTC) | temp F | wind direction | speed MPH | gust MPH | rain 1hr in | rain 24hr in | rain mn in | humidity % | barometer mb |
| 20260510225403 | 69 | 182 | 2.0 | 6.0 | 0.00 | 0.00 | 0.00 | 32 | 1021.3 |
| 20260510225103 | 69 | 188 | 2.0 | 6.0 | 0.00 | 0.00 | 0.00 | 33 | 1021.3 |
| 20260510224803 | 69 | 194 | 2.0 | 6.0 | 0.00 | 0.00 | 0.00 | 35 | 1021.5 |
| 20260510224503 | 69 | 180 | 2.0 | 6.0 | 0.00 | 0.00 | 0.00 | 33 | 1021.5 |
| 20260510224203 | 69 | 183 | 2.0 | 6.0 | 0.00 | 0.00 | 0.00 | 33 | 1021.5 |
| 20260510223903 | 69 | 142 | 2.0 | 6.0 | 0.00 | 0.00 | 0.00 | 33 | 1021.5 |
| 20260510223603 | 69 | 146 | 2.0 | 7.0 | 0.00 | 0.00 | 0.00 | 34 | 1021.5 |
| 20260510223303 | 69 | 168 | 3.0 | 9.0 | 0.00 | 0.00 | 0.00 | 35 | 1021.6 |
| 20260510223003 | 68 | 235 | 3.0 | 9.0 | 0.00 | 0.00 | 0.00 | 33 | 1021.5 |
| 20260510222703 | 68 | 203 | 3.0 | 9.0 | 0.00 | 0.00 | 0.00 | 32 | 1021.6 |
| 20260510222618 | 68 | 198 | 3.0 | 9.0 | 0.00 | 0.00 | 0.00 | 31 | 1021.6 |
| 20260510222103 | 69 | 222 | 3.0 | 9.0 | 0.00 | 0.00 | 0.00 | 32 | 1021.6 |
| 20260510221803 | 69 | 233 | 3.0 | 9.0 | 0.00 | 0.00 | 0.00 | 33 | 1021.7 |
| 20260510221503 | 69 | 334 | 5.0 | 9.0 | 0.00 | 0.00 | 0.00 | 32 | 1021.7 |
| 20260510221203 | 69 | 345 | 5.0 | 10.0 | 0.00 | 0.00 | 0.00 | 31 | 1021.7 |
| 20260510220903 | 69 | 327 | 4.0 | 10.0 | 0.00 | 0.00 | 0.00 | 31 | 1021.8 |
| 20260510220603 | 69 | 258 | 4.0 | 10.0 | 0.00 | 0.00 | 0.00 | 33 | 1021.7 |
| 20260510220303 | 69 | 210 | 3.0 | 10.0 | 0.00 | 0.00 | 0.00 | 32 | 1021.7 |
| 20260510220218 | 69 | 209 | 3.0 | 10.0 | 0.00 | 0.00 | 0.00 | 35 | 1021.6 |
| 20260510215703 | 69 | 179 | 3.0 | 7.0 | 0.00 | 0.00 | 0.00 | 33 | 1021.6 |
| 20260510215403 | 69 | 201 | 3.0 | 8.0 | 0.00 | 0.00 | 0.00 | 34 | 1021.5 |
| 20260510215317 | 69 | 215 | 3.0 | 8.0 | 0.00 | 0.00 | 0.00 | 34 | 1021.5 |
| 20260510214803 | 68 | 157 | 3.0 | 8.0 | 0.00 | 0.00 | 0.00 | 34 | 1021.6 |
| 20260510214503 | 68 | 133 | 3.0 | 7.0 | 0.00 | 0.00 | 0.00 | 32 | 1021.5 |
| 20260510214203 | 69 | 103 | 3.0 | 8.0 | 0.00 | 0.00 | 0.00 | 32 | 1021.5 |
| 20260510213903 | 68 | 147 | 3.0 | 8.0 | 0.00 | 0.00 | 0.00 | 36 | 1021.5 |
| 20260510213603 | 68 | 90 | 3.0 | 8.0 | 0.00 | 0.00 | 0.00 | 34 | 1021.6 |
| 20260510213303 | 68 | 66 | 3.0 | 8.0 | 0.00 | 0.00 | 0.00 | 33 | 1021.5 |
| 20260510213004 | 68 | 74 | 4.0 | 8.0 | 0.00 | 0.00 | 0.00 | 33 | 1021.6 |
| 20260510212703 | 68 | 98 | 4.0 | 8.0 | 0.00 | 0.00 | 0.00 | 34 | 1021.5 |
| 20260510212403 | 68 | 165 | 3.0 | 8.0 | 0.00 | 0.00 | 0.00 | 33 | 1021.5 |
| 20260510212103 | 68 | 226 | 3.0 | 10.0 | 0.00 | 0.00 | 0.00 | 36 | 1021.5 |
| 20260510212017 | 68 | 232 | 4.0 | 10.0 | 0.00 | 0.00 | 0.00 | 35 | 1021.5 |
| 20260510211503 | 68 | 252 | 3.0 | 10.0 | 0.00 | 0.00 | 0.00 | 34 | 1021.6 |
| 20260510211418 | 68 | 261 | 3.0 | 10.0 | 0.00 | 0.00 | 0.00 | 33 | 1021.6 |
| 20260510211118 | 68 | 200 | 2.0 | 6.0 | 0.00 | 0.00 | 0.00 | 34 | 1021.5 |
| 20260510210603 | 68 | 170 | 2.0 | 8.0 | 0.00 | 0.00 | 0.00 | 36 | 1021.6 |
| 20260510210303 | 67 | 87 | 3.0 | 8.0 | 0.00 | 0.00 | 0.00 | 37 | 1021.6 |
| 20260510210003 | 67 | 36 | 4.0 | 8.0 | 0.00 | 0.00 | 0.00 | 36 | 1021.7 |
| 20260510205703 | 67 | 83 | 3.0 | 8.0 | 0.00 | 0.00 | 0.00 | 36 | 1021.8 |
| 20260510205404 | 67 | 176 | 3.0 | 8.0 | 0.00 | 0.00 | 0.00 | 37 | 1021.9 |
| 20260510205103 | 67 | 194 | 3.0 | 10.0 | 0.00 | 0.00 | 0.00 | 36 | 1021.8 |
| 20260510204803 | 67 | 210 | 3.0 | 10.0 | 0.00 | 0.00 | 0.00 | 35 | 1021.8 |
| 20260510204503 | 66 | 210 | 3.0 | 10.0 | 0.00 | 0.00 | 0.00 | 37 | 1021.8 |
| 20260510204203 | 66 | 182 | 3.0 | 10.0 | 0.00 | 0.00 | 0.00 | 38 | 1021.7 |
| 20260510203903 | 66 | 194 | 3.0 | 11.0 | 0.00 | 0.00 | 0.00 | 35 | 1021.9 |
| 20260510203603 | 67 | 161 | 3.0 | 11.0 | 0.00 | 0.00 | 0.00 | 37 | 1022.0 |
| 20260510203303 | 67 | 133 | 3.0 | 11.0 | 0.00 | 0.00 | 0.00 | 37 | 1022.0 |
| 20260510203003 | 67 | 82 | 3.0 | 11.0 | 0.00 | 0.00 | 0.00 | 36 | 1021.7 |
| 20260510202703 | 66 | 243 | 3.0 | 10.0 | 0.00 | 0.00 | 0.00 | 37 | 1021.7 |
| 20260510202403 | 67 | 310 | 4.0 | 11.0 | 0.00 | 0.00 | 0.00 | 34 | 1022.0 |
| 20260510202103 | 66 | 318 | 4.0 | 11.0 | 0.00 | 0.00 | 0.00 | 38 | 1022.0 |
| 20260510201803 | 66 | 326 | 5.0 | 13.0 | 0.00 | 0.00 | 0.00 | 35 | 1022.0 |
| 20260510201503 | 66 | 315 | 5.0 | 13.0 | 0.00 | 0.00 | 0.00 | 37 | 1021.9 |
| 20260510201203 | 66 | 320 | 5.0 | 13.0 | 0.00 | 0.00 | 0.00 | 35 | 1021.9 |
| 20260510200903 | 66 | 320 | 4.0 | 12.0 | 0.00 | 0.00 | 0.00 | 34 | 1021.9 |
| 20260510200603 | 66 | 206 | 3.0 | 8.0 | 0.00 | 0.00 | 0.00 | 36 | 1021.9 |
| 20260510200303 | 66 | 190 | 3.0 | 7.0 | 0.00 | 0.00 | 0.00 | 36 | 1021.9 |
| 20260510200004 | 66 | 196 | 3.0 | 7.0 | 0.00 | 0.00 | 0.00 | 36 | 1022.0 |
| 20260510195703 | 66 | 193 | 3.0 | 7.0 | 0.00 | 0.00 | 0.00 | 37 | 1022.0 |
| 20260510195404 | 66 | 168 | 3.0 | 8.0 | 0.00 | 0.00 | 0.00 | 38 | 1022.0 |
| 20260510195103 | 65 | 142 | 3.0 | 8.0 | 0.00 | 0.00 | 0.00 | 39 | 1022.0 |
| 20260510195018 | 65 | 139 | 3.0 | 8.0 | 0.00 | 0.00 | 0.00 | 39 | 1022.0 |
| 20260510194503 | 65 | 148 | 3.0 | 7.0 | 0.00 | 0.00 | 0.00 | 40 | 1022.2 |
| 20260510194204 | 65 | 149 | 3.0 | 8.0 | 0.00 | 0.00 | 0.00 | 40 | 1022.2 |
| 20260510193903 | 65 | 201 | 3.0 | 8.0 | 0.00 | 0.00 | 0.00 | 39 | 1022.2 |
| 20260510193603 | 64 | 202 | 3.0 | 8.0 | 0.00 | 0.00 | 0.00 | 39 | 1022.2 |
| 20260510193303 | 64 | 203 | 3.0 | 8.0 | 0.00 | 0.00 | 0.00 | 40 | 1022.2 |
| 20260510193003 | 64 | 183 | 2.0 | 8.0 | 0.00 | 0.00 | 0.00 | 40 | 1022.2 |
| 20260510192703 | 64 | 150 | 2.0 | 7.0 | 0.00 | 0.00 | 0.00 | 40 | 1022.2 |
| 20260510192403 | 64 | 258 | 3.0 | 7.0 | 0.00 | 0.00 | 0.00 | 40 | 1022.2 |
| 20260510192318 | 64 | 309 | 3.0 | 8.0 | 0.00 | 0.00 | 0.00 | 40 | 1022.2 |
| 20260510191803 | 64 | 226 | 3.0 | 8.0 | 0.00 | 0.00 | 0.00 | 39 | 1022.1 |
| 20260510191504 | 64 | 198 | 3.0 | 8.0 | 0.00 | 0.00 | 0.00 | 39 | 1022.1 |
| 20260510191203 | 64 | 188 | 3.0 | 7.0 | 0.00 | 0.00 | 0.00 | 41 | 1022.1 |
| 20260510190903 | 64 | 178 | 3.0 | 7.0 | 0.00 | 0.00 | 0.00 | 40 | 1022.1 |
| 20260510190603 | 63 | 189 | 3.0 | 7.0 | 0.00 | 0.00 | 0.00 | 40 | 1022.1 |
| 20260510190304 | 63 | 182 | 3.0 | 6.0 | 0.00 | 0.00 | 0.00 | 40 | 1022.1 |
| 20260510190004 | 63 | 202 | 3.0 | 8.0 | 0.00 | 0.00 | 0.00 | 40 | 1022.2 |
| 20260510185703 | 63 | 184 | 3.0 | 8.0 | 0.00 | 0.00 | 0.00 | 40 | 1022.2 |
| 20260510185618 | 63 | 190 | 3.0 | 8.0 | 0.00 | 0.00 | 0.00 | 40 | 1022.2 |
| 20260510185103 | 63 | 222 | 4.0 | 8.0 | 0.00 | 0.00 | 0.00 | 39 | 1022.2 |
| 20260510184803 | 64 | 298 | 4.0 | 8.0 | 0.00 | 0.00 | 0.00 | 38 | 1022.2 |
| 20260510184503 | 64 | 287 | 4.0 | 8.0 | 0.00 | 0.00 | 0.00 | 40 | 1022.2 |
| 20260510184203 | 64 | 288 | 4.0 | 9.0 | 0.00 | 0.00 | 0.00 | 38 | 1022.2 |
| 20260510184117 | 64 | 286 | 4.0 | 9.0 | 0.00 | 0.00 | 0.00 | 39 | 1022.2 |
| 20260510183603 | 64 | 265 | 4.0 | 10.0 | 0.00 | 0.00 | 0.00 | 39 | 1022.2 |
| 20260510183517 | 64 | 281 | 4.0 | 10.0 | 0.00 | 0.00 | 0.00 | 39 | 1022.2 |
| 20260510183003 | 64 | 265 | 4.0 | 10.0 | 0.00 | 0.00 | 0.00 | 39 | 1022.1 |
| 20260510182703 | 64 | 225 | 3.0 | 8.0 | 0.00 | 0.00 | 0.00 | 39 | 1022.1 |
| 20260510182618 | 64 | 231 | 3.0 | 8.0 | 0.00 | 0.00 | 0.00 | 39 | 1022.2 |
| 20260510182103 | 64 | 178 | 1.0 | 6.0 | 0.00 | 0.00 | 0.00 | 41 | 1022.2 |
| 20260510181803 | 64 | 199 | 2.0 | 6.0 | 0.00 | 0.00 | 0.00 | 43 | 1022.3 |
| 20260510181503 | 64 | 201 | 2.0 | 6.0 | 0.00 | 0.00 | 0.00 | 42 | 1022.4 |
| 20260510181204 | 63 | 207 | 3.0 | 6.0 | 0.00 | 0.00 | 0.00 | 40 | 1022.4 |
| 20260510180903 | 64 | 198 | 2.0 | 6.0 | 0.00 | 0.00 | 0.00 | 41 | 1022.4 |
| 20260510180603 | 64 | 201 | 2.0 | 6.0 | 0.00 | 0.00 | 0.00 | 41 | 1022.4 |
| 20260510180518 | 64 | 202 | 2.0 | 6.0 | 0.00 | 0.00 | 0.00 | 41 | 1022.4 |
| 20260510180003 | 63 | 236 | 3.0 | 7.0 | 0.00 | 0.00 | 0.00 | 41 | 1022.4 |
| 20260510175704 | 63 | 236 | 3.0 | 7.0 | 0.00 | 0.00 | 0.00 | 40 | 1022.5 |
| 20260510175618 | 63 | 226 | 3.0 | 7.0 | 0.00 | 0.00 | 0.00 | 40 | 1022.5 |
| 20260510175104 | 64 | 199 | 2.0 | 6.0 | 0.00 | 0.00 | 0.00 | 41 | 1022.6 |
| 20260510174803 | 64 | 199 | 2.0 | 6.0 | 0.00 | 0.00 | 0.00 | 40 | 1022.7 |
| 20260510174504 | 64 | 195 | 2.0 | 6.0 | 0.00 | 0.00 | 0.00 | 40 | 1022.6 |
| 20260510174203 | 64 | 192 | 2.0 | 6.0 | 0.00 | 0.00 | 0.00 | 40 | 1022.6 |
| 20260510174117 | 64 | 193 | 2.0 | 6.0 | 0.00 | 0.00 | 0.00 | 40 | 1022.5 |
| 20260510173603 | 63 | 189 | 3.0 | 6.0 | 0.00 | 0.00 | 0.00 | 40 | 1022.6 |
| 20260510173304 | 63 | 192 | 3.0 | 6.0 | 0.00 | 0.00 | 0.00 | 40 | 1022.6 |
| 20260510173003 | 63 | 187 | 2.0 | 6.0 | 0.00 | 0.00 | 0.00 | 38 | 1022.7 |
| 20260510172703 | 63 | 178 | 2.0 | 5.0 | 0.00 | 0.00 | 0.00 | 39 | 1022.6 |
| 20260510172403 | 63 | 186 | 1.0 | 6.0 | 0.00 | 0.00 | 0.00 | 40 | 1022.6 |
| 20260510172105 | 63 | 198 | 2.0 | 6.0 | 0.00 | 0.00 | 0.00 | 40 | 1022.5 |
| 20260510171803 | 63 | 197 | 2.0 | 6.0 | 0.00 | 0.00 | 0.00 | 40 | 1022.4 |
| 20260510171717 | 63 | 194 | 2.0 | 6.0 | 0.00 | 0.00 | 0.00 | 40 | 1022.4 |
| 20260510171203 | 63 | 181 | 2.0 | 6.0 | 0.00 | 0.00 | 0.00 | 39 | 1022.5 |
| 20260510170903 | 63 | 180 | 2.0 | 6.0 | 0.00 | 0.00 | 0.00 | 39 | 1022.5 |
| 20260510170818 | 63 | 179 | 2.0 | 6.0 | 0.00 | 0.00 | 0.00 | 39 | 1022.5 |
| 20260510170303 | 63 | 221 | 3.0 | 7.0 | 0.00 | 0.00 | 0.00 | 39 | 1022.6 |
| 20260510170003 | 63 | 256 | 3.0 | 9.0 | 0.00 | 0.00 | 0.00 | 39 | 1022.6 |
| 20260510165703 | 63 | 260 | 3.0 | 9.0 | 0.00 | 0.00 | 0.00 | 40 | 1022.4 |
| 20260510165404 | 63 | 262 | 3.0 | 9.0 | 0.00 | 0.00 | 0.00 | 38 | 1022.5 |
| 20260510165103 | 63 | 193 | 3.0 | 7.0 | 0.00 | 0.00 | 0.00 | 39 | 1022.4 |
| 20260510165017 | 63 | 181 | 3.0 | 7.0 | 0.00 | 0.00 | 0.00 | 38 | 1022.3 |
| 20260510164503 | 63 | 178 | 3.0 | 7.0 | 0.00 | 0.00 | 0.00 | 38 | 1022.4 |
| 20260510164203 | 63 | 182 | 2.0 | 6.0 | 0.00 | 0.00 | 0.00 | 37 | 1022.3 |
| 20260510163904 | 63 | 187 | 2.0 | 6.0 | 0.00 | 0.00 | 0.00 | 42 | 1022.3 |
| 20260510163603 | 63 | 187 | 2.0 | 6.0 | 0.00 | 0.00 | 0.00 | 40 | 1022.3 |
| 20260510163303 | 63 | 187 | 3.0 | 6.0 | 0.00 | 0.00 | 0.00 | 40 | 1022.3 |
| 20260510163003 | 63 | 166 | 2.0 | 8.0 | 0.00 | 0.00 | 0.00 | 41 | 1022.4 |
| 20260510162918 | 63 | 164 | 2.0 | 8.0 | 0.00 | 0.00 | 0.00 | 41 | 1022.4 |
| 20260510162403 | 63 | 127 | 3.0 | 11.0 | 0.00 | 0.00 | 0.00 | 39 | 1022.3 |
| 20260510162317 | 63 | 126 | 3.0 | 11.0 | 0.00 | 0.00 | 0.00 | 39 | 1022.3 |
| 20260510161803 | 62 | 338 | 5.0 | 13.0 | 0.00 | 0.00 | 0.00 | 40 | 1022.3 |
| 20260510161717 | 62 | 347 | 5.0 | 13.0 | 0.00 | 0.00 | 0.00 | 39 | 1022.3 |
| 20260510161203 | 63 | 359 | 4.0 | 13.0 | 0.00 | 0.00 | 0.00 | 38 | 1022.2 |
| 20260510160903 | 64 | 101 | 3.0 | 10.0 | 0.00 | 0.00 | 0.00 | 38 | 1022.1 |
| 20260510160603 | 64 | 136 | 2.0 | 6.0 | 0.00 | 0.00 | 0.00 | 40 | 1022.1 |
| 20260510160303 | 63 | 115 | 3.0 | 7.0 | 0.00 | 0.00 | 0.00 | 38 | 1022.0 |
| 20260510160003 | 63 | 344 | 3.0 | 10.0 | 0.00 | 0.00 | 0.00 | 42 | 1021.9 |
| 20260510155703 | 63 | 282 | 3.0 | 10.0 | 0.00 | 0.00 | 0.00 | 41 | 1021.8 |
| 20260510155403 | 62 | 221 | 3.0 | 10.0 | 0.00 | 0.00 | 0.00 | 39 | 1021.9 |
| 20260510155103 | 62 | 104 | 3.0 | 8.0 | 0.00 | 0.00 | 0.00 | 41 | 1021.7 |
| 20260510155017 | 62 | 102 | 3.0 | 8.0 | 0.00 | 0.00 | 0.00 | 41 | 1021.7 |
| 20260510154503 | 62 | 92 | 3.0 | 9.0 | 0.00 | 0.00 | 0.00 | 41 | 1021.6 |
| 20260510154203 | 62 | 111 | 2.0 | 9.0 | 0.00 | 0.00 | 0.00 | 40 | 1021.6 |
| 20260510153903 | 62 | 110 | 3.0 | 9.0 | 0.00 | 0.00 | 0.00 | 41 | 1021.6 |
| 20260510153603 | 62 | 62 | 3.0 | 9.0 | 0.00 | 0.00 | 0.00 | 42 | 1021.6 |
| 20260510153303 | 61 | 47 | 4.0 | 8.0 | 0.00 | 0.00 | 0.00 | 41 | 1021.6 |
| 20260510153004 | 61 | 44 | 4.0 | 9.0 | 0.00 | 0.00 | 0.00 | 41 | 1021.6 |
| 20260510152703 | 61 | 32 | 3.0 | 9.0 | 0.00 | 0.00 | 0.00 | 40 | 1021.6 |
| 20260510152403 | 62 | 90 | 3.0 | 9.0 | 0.00 | 0.00 | 0.00 | 39 | 1021.4 |
| 20260510152103 | 62 | 109 | 2.0 | 8.0 | 0.00 | 0.00 | 0.00 | 41 | 1021.5 |
| 20260510151804 | 61 | 137 | 2.0 | 6.0 | 0.00 | 0.00 | 0.00 | 44 | 1021.6 |
| 20260510151503 | 61 | 133 | 2.0 | 6.0 | 0.00 | 0.00 | 0.00 | 43 | 1021.4 |
| 20260510151203 | 60 | 135 | 2.0 | 6.0 | 0.00 | 0.00 | 0.00 | 42 | 1021.4 |
| 20260510150903 | 60 | 142 | 2.0 | 6.0 | 0.00 | 0.00 | 0.00 | 42 | 1021.4 |
| 20260510150818 | 60 | 147 | 2.0 | 6.0 | 0.00 | 0.00 | 0.00 | 43 | 1021.4 |
| 20260510150303 | 60 | 173 | 2.0 | 8.0 | 0.00 | 0.00 | 0.00 | 42 | 1021.5 |
| 20260510150004 | 60 | 162 | 1.0 | 8.0 | 0.00 | 0.00 | 0.00 | 43 | 1021.4 |
| 20260510145917 | 60 | 156 | 1.0 | 8.0 | 0.00 | 0.00 | 0.00 | 43 | 1021.4 |
| 20260510145617 | 60 | 143 | 1.0 | 4.0 | 0.00 | 0.00 | 0.00 | 44 | 1021.3 |
| 20260510145103 | 60 | 184 | 1.0 | 7.0 | 0.00 | 0.00 | 0.00 | 44 | 1021.3 |
| 20260510144803 | 60 | 191 | 1.0 | 7.0 | 0.00 | 0.00 | 0.00 | 46 | 1021.3 |
| 20260510144503 | 60 | 182 | 1.0 | 7.0 | 0.00 | 0.00 | 0.00 | 45 | 1021.3 |
| 20260510144418 | 60 | 171 | 1.0 | 7.0 | 0.00 | 0.00 | 0.00 | 45 | 1021.3 |
| 20260510143903 | 59 | 147 | 1.0 | 6.0 | 0.00 | 0.00 | 0.00 | 45 | 1021.3 |
| 20260510143603 | 59 | 146 | 1.0 | 6.0 | 0.00 | 0.00 | 0.00 | 45 | 1021.3 |
| 20260510143303 | 59 | 153 | 1.0 | 7.0 | 0.00 | 0.00 | 0.00 | 43 | 1021.3 |
| 20260510143003 | 59 | 162 | 1.0 | 7.0 | 0.00 | 0.00 | 0.00 | 44 | 1021.6 |
| 20260510142703 | 59 | 165 | 1.0 | 7.0 | 0.00 | 0.00 | 0.00 | 44 | 1021.6 |
| 20260510142403 | 59 | 160 | 1.0 | 5.0 | 0.00 | 0.00 | 0.00 | 46 | 1021.7 |
| 20260510142103 | 59 | 153 | 2.0 | 8.0 | 0.00 | 0.00 | 0.00 | 45 | 1021.6 |
| 20260510141803 | 59 | 115 | 3.0 | 8.0 | 0.00 | 0.00 | 0.00 | 45 | 1021.7 |
| 20260510141504 | 59 | 79 | 3.0 | 9.0 | 0.00 | 0.00 | 0.00 | 46 | 1021.7 |
| 20260510141203 | 59 | 53 | 4.0 | 9.0 | 0.00 | 0.00 | 0.00 | 44 | 1021.7 |
| 20260510140903 | 59 | 51 | 4.0 | 9.0 | 0.00 | 0.00 | 0.00 | 44 | 1021.7 |
| 20260510140604 | 59 | 61 | 3.0 | 9.0 | 0.00 | 0.00 | 0.00 | 45 | 1021.7 |
| 20260510140303 | 59 | 81 | 3.0 | 9.0 | 0.00 | 0.00 | 0.00 | 45 | 1021.7 |
| 20260510140217 | 59 | 85 | 3.0 | 6.0 | 0.00 | 0.00 | 0.00 | 45 | 1021.7 |
| 20260510135703 | 59 | 94 | 3.0 | 7.0 | 0.00 | 0.00 | 0.00 | 46 | 1021.5 |
| 20260510135403 | 58 | 64 | 3.0 | 8.0 | 0.00 | 0.00 | 0.00 | 46 | 1021.6 |
| 20260510135103 | 58 | 67 | 3.0 | 8.0 | 0.00 | 0.00 | 0.00 | 45 | 1021.6 |
| 20260510134803 | 58 | 98 | 3.0 | 8.0 | 0.00 | 0.00 | 0.00 | 45 | 1021.5 |
| 20260510134503 | 58 | 162 | 3.0 | 8.0 | 0.00 | 0.00 | 0.00 | 47 | 1021.5 |
| 20260510134203 | 58 | 154 | 3.0 | 8.0 | 0.00 | 0.00 | 0.00 | 47 | 1021.5 |
| 20260510133903 | 58 | 164 | 3.0 | 8.0 | 0.00 | 0.00 | 0.00 | 46 | 1021.4 |
| 20260510133817 | 58 | 168 | 3.0 | 8.0 | 0.00 | 0.00 | 0.00 | 46 | 1021.4 |
| 20260510133303 | 58 | 198 | 3.0 | 8.0 | 0.00 | 0.00 | 0.00 | 47 | 1021.4 |
| 20260510133004 | 58 | 208 | 3.0 | 8.0 | 0.00 | 0.00 | 0.00 | 46 | 1021.3 |
| 20260510132703 | 58 | 203 | 2.0 | 8.0 | 0.00 | 0.00 | 0.00 | 46 | 1021.3 |
| 20260510132403 | 58 | 150 | 2.0 | 9.0 | 0.00 | 0.00 | 0.00 | 47 | 1021.1 |
| 20260510132103 | 58 | 144 | 3.0 | 9.0 | 0.00 | 0.00 | 0.00 | 48 | 1021.1 |
| 20260510132018 | 58 | 151 | 3.0 | 9.0 | 0.00 | 0.00 | 0.00 | 47 | 1021.1 |
| 20260510131503 | 58 | 176 | 3.0 | 9.0 | 0.00 | 0.00 | 0.00 | 47 | 1020.9 |
| 20260510131417 | 58 | 175 | 3.0 | 8.0 | 0.00 | 0.00 | 0.00 | 47 | 1020.9 |
| 20260510130903 | 58 | 136 | 3.0 | 9.0 | 0.00 | 0.00 | 0.00 | 46 | 1020.8 |
| 20260510130603 | 58 | 129 | 2.0 | 9.0 | 0.00 | 0.00 | 0.00 | 47 | 1020.8 |
| 20260510130304 | 58 | 113 | 2.0 | 8.0 | 0.00 | 0.00 | 0.00 | 47 | 1020.7 |
| 20260510130003 | 58 | 130 | 2.0 | 8.0 | 0.00 | 0.00 | 0.00 | 46 | 1020.6 |
| 20260510125703 | 58 | 153 | 2.0 | 8.0 | 0.00 | 0.00 | 0.00 | 48 | 1020.4 |
| 20260510125403 | 58 | 158 | 2.0 | 8.0 | 0.00 | 0.00 | 0.00 | 47 | 1020.3 |
| 20260510125103 | 58 | 164 | 2.0 | 8.0 | 0.00 | 0.00 | 0.00 | 49 | 1020.3 |
| 20260510124803 | 58 | 162 | 2.0 | 8.0 | 0.00 | 0.00 | 0.00 | 49 | 1020.2 |
| 20260510124503 | 58 | 152 | 2.0 | 8.0 | 0.00 | 0.00 | 0.00 | 50 | 1020.1 |
| 20260510124203 | 58 | 171 | 2.0 | 6.0 | 0.00 | 0.00 | 0.00 | 50 | 1020.1 |
| 20260510124117 | 58 | 181 | 2.0 | 6.0 | 0.00 | 0.00 | 0.00 | 50 | 1020.1 |
| 20260510123603 | 57 | 186 | 2.0 | 6.0 | 0.00 | 0.00 | 0.00 | 51 | 1020.0 |
| 20260510123303 | 57 | 189 | 2.0 | 6.0 | 0.00 | 0.00 | 0.00 | 50 | 1019.9 |
| 20260510123003 | 57 | 189 | 2.0 | 6.0 | 0.00 | 0.00 | 0.00 | 50 | 1019.8 |
| 20260510122918 | 57 | 193 | 1.0 | 6.0 | 0.00 | 0.00 | 0.00 | 50 | 1019.8 |
| 20260510122403 | 57 | 194 | 2.0 | 6.0 | 0.00 | 0.00 | 0.00 | 51 | 1019.7 |
| 20260510122318 | 57 | 188 | 2.0 | 6.0 | 0.00 | 0.00 | 0.00 | 51 | 1019.6 |
| 20260510122018 | 57 | 170 | 2.0 | 6.0 | 0.00 | 0.00 | 0.00 | 52 | 1019.4 |
| 20260510121503 | 57 | 149 | 2.0 | 8.0 | 0.00 | 0.00 | 0.00 | 51 | 1019.3 |
| 20260510121203 | 57 | 148 | 2.0 | 8.0 | 0.00 | 0.00 | 0.00 | 51 | 1019.2 |
| 20260510120903 | 57 | 176 | 2.0 | 8.0 | 0.00 | 0.00 | 0.00 | 51 | 1019.2 |
| 20260510120603 | 57 | 186 | 2.0 | 8.0 | 0.00 | 0.00 | 0.00 | 52 | 1019.2 |
| 20260510120303 | 57 | 190 | 2.0 | 7.0 | 0.00 | 0.00 | 0.00 | 52 | 1019.1 |
| 20260510120003 | 56 | 193 | 2.0 | 7.0 | 0.00 | 0.00 | 0.00 | 52 | 1019.2 |
| 20260510115703 | 56 | 184 | 1.0 | 4.0 | 0.00 | 0.00 | 0.00 | 52 | 1019.1 |
| 20260510115403 | 56 | 183 | 1.0 | 4.0 | 0.00 | 0.00 | 0.00 | 51 | 1019.1 |
| 20260510115103 | 57 | 185 | 1.0 | 5.0 | 0.00 | 0.00 | 0.00 | 51 | 1018.9 |
| 20260510114803 | 57 | 181 | 1.0 | 5.0 | 0.00 | 0.00 | 0.00 | 50 | 1018.9 |
| 20260510114503 | 57 | 178 | 1.0 | 5.0 | 0.00 | 0.00 | 0.00 | 50 | 1018.7 |
| 20260510114203 | 57 | 161 | 2.0 | 5.0 | 0.00 | 0.00 | 0.00 | 50 | 1018.6 |
| 20260510113903 | 57 | 186 | 2.0 | 7.0 | 0.00 | 0.00 | 0.00 | 50 | 1018.5 |
| 20260510113603 | 57 | 197 | 3.0 | 8.0 | 0.00 | 0.00 | 0.00 | 49 | 1018.5 |
| 20260510113303 | 57 | 195 | 3.0 | 8.0 | 0.00 | 0.00 | 0.00 | 50 | 1018.5 |
| 20260510113218 | 57 | 193 | 2.0 | 8.0 | 0.00 | 0.00 | 0.00 | 49 | 1018.5 |
| 20260510112918 | 57 | 149 | 2.0 | 8.0 | 0.00 | 0.00 | 0.00 | 50 | 1018.4 |
| 20260510112403 | 57 | 132 | 2.0 | 5.0 | 0.00 | 0.00 | 0.00 | 50 | 1018.1 |
| 20260510112103 | 58 | 137 | 2.0 | 5.0 | 0.00 | 0.00 | 0.00 | 50 | 1018.3 |
| 20260510112017 | 57 | 137 | 2.0 | 5.0 | 0.00 | 0.00 | 0.00 | 51 | 1018.3 |
| 20260510111503 | 58 | 139 | 1.0 | 3.0 | 0.00 | 0.00 | 0.00 | 50 | 1018.4 |
| 20260510111203 | 58 | 148 | 1.0 | 3.0 | 0.00 | 0.00 | 0.00 | 51 | 1018.4 |
| 20260510110903 | 58 | 148 | 1.0 | 3.0 | 0.00 | 0.00 | 0.00 | 51 | 1018.3 |
| 20260510110603 | 58 | 161 | 1.0 | 3.0 | 0.00 | 0.00 | 0.00 | 51 | 1018.2 |
| 20260510110303 | 58 | 173 | 1.0 | 5.0 | 0.00 | 0.00 | 0.00 | 52 | 1018.1 |
| 20260510110003 | 58 | 161 | 1.0 | 5.0 | 0.00 | 0.00 | 0.00 | 51 | 1018.1 |
| 20260510105703 | 58 | 154 | 1.0 | 5.0 | 0.00 | 0.00 | 0.00 | 51 | 1018.1 |
| 20260510105403 | 58 | 152 | 2.0 | 9.0 | 0.00 | 0.00 | 0.00 | 52 | 1018.1 |
| 20260510105103 | 58 | 154 | 2.0 | 9.0 | 0.00 | 0.00 | 0.00 | 51 | 1018.0 |
| 20260510105017 | 58 | 153 | 2.0 | 9.0 | 0.00 | 0.00 | 0.00 | 51 | 1017.9 |
| 20260510104503 | 58 | 121 | 2.0 | 9.0 | 0.00 | 0.00 | 0.00 | 52 | 1017.9 |
| 20260510104203 | 59 | 117 | 2.0 | 7.0 | 0.00 | 0.00 | 0.00 | 52 | 1017.9 |
| 20260510103903 | 59 | 129 | 2.0 | 7.0 | 0.00 | 0.00 | 0.00 | 53 | 1017.8 |
| 20260510103818 | 59 | 133 | 2.0 | 7.0 | 0.00 | 0.00 | 0.00 | 53 | 1017.8 |
| 20260510103303 | 59 | 145 | 2.0 | 5.0 | 0.00 | 0.00 | 0.00 | 54 | 1017.6 |
| 20260510103003 | 59 | 136 | 2.0 | 5.0 | 0.00 | 0.00 | 0.00 | 54 | 1017.6 |
| 20260510102703 | 59 | 124 | 3.0 | 7.0 | 0.00 | 0.00 | 0.00 | 53 | 1017.6 |
| 20260510102403 | 59 | 133 | 3.0 | 9.0 | 0.00 | 0.00 | 0.00 | 53 | 1017.5 |
| 20260510102317 | 59 | 133 | 3.0 | 9.0 | 0.00 | 0.00 | 0.00 | 54 | 1017.5 |
| 20260510101803 | 59 | 132 | 3.0 | 9.0 | 0.00 | 0.00 | 0.00 | 55 | 1017.4 |
| 20260510101503 | 60 | 129 | 2.0 | 5.0 | 0.00 | 0.00 | 0.00 | 55 | 1017.3 |
| 20260510101418 | 60 | 116 | 2.0 | 8.0 | 0.00 | 0.00 | 0.00 | 55 | 1017.4 |
| 20260510100903 | 60 | 116 | 3.0 | 9.0 | 0.00 | 0.00 | 0.00 | 56 | 1017.2 |
| 20260510100603 | 60 | 103 | 3.0 | 9.0 | 0.00 | 0.00 | 0.00 | 56 | 1017.0 |
| 20260510100303 | 60 | 108 | 3.0 | 9.0 | 0.00 | 0.00 | 0.00 | 57 | 1016.9 |
| 20260510100217 | 60 | 113 | 3.0 | 9.0 | 0.00 | 0.00 | 0.00 | 57 | 1016.9 |
| 20260510095703 | 60 | 79 | 3.0 | 7.0 | 0.00 | 0.00 | 0.00 | 59 | 1016.8 |
| 20260510095403 | 60 | 91 | 3.0 | 8.0 | 0.00 | 0.00 | 0.00 | 59 | 1016.8 |
| 20260510095103 | 60 | 118 | 3.0 | 8.0 | 0.00 | 0.00 | 0.00 | 60 | 1016.8 |
| 20260510095018 | 60 | 135 | 3.0 | 8.0 | 0.00 | 0.00 | 0.00 | 60 | 1016.8 |
| 20260510094503 | 60 | 165 | 2.0 | 7.0 | 0.00 | 0.00 | 0.00 | 63 | 1016.7 |
| 20260510094203 | 60 | 173 | 3.0 | 7.0 | 0.00 | 0.00 | 0.00 | 62 | 1016.6 |
| 20260510093903 | 60 | 141 | 3.0 | 8.0 | 0.00 | 0.00 | 0.00 | 63 | 1016.7 |
| 20260510093603 | 60 | 356 | 3.0 | 10.0 | 0.00 | 0.00 | 0.00 | 63 | 1016.6 |
| 20260510093517 | 60 | 3 | 3.0 | 10.0 | 0.00 | 0.00 | 0.00 | 63 | 1016.6 |
| 20260510093003 | 60 | 105 | 3.0 | 10.0 | 0.00 | 0.00 | 0.00 | 63 | 1016.5 |
| 20260510092703 | 60 | 143 | 3.0 | 6.0 | 0.00 | 0.00 | 0.00 | 63 | 1016.5 |
| 20260510092403 | 60 | 167 | 3.0 | 6.0 | 0.00 | 0.00 | 0.00 | 64 | 1016.6 |
| 20260510092103 | 60 | 176 | 3.0 | 6.0 | 0.00 | 0.00 | 0.00 | 64 | 1016.6 |
| 20260510091803 | 60 | 193 | 3.0 | 6.0 | 0.00 | 0.00 | 0.00 | 64 | 1016.6 |
| 20260510091718 | 60 | 190 | 3.0 | 6.0 | 0.00 | 0.00 | 0.00 | 64 | 1016.6 |
| 20260510091203 | 60 | 184 | 2.0 | 5.0 | 0.00 | 0.00 | 0.00 | 65 | 1016.6 |
| 20260510090903 | 60 | 179 | 2.0 | 5.0 | 0.00 | 0.00 | 0.00 | 66 | 1016.6 |
| 20260510090603 | 61 | 188 | 2.0 | 5.0 | 0.00 | 0.00 | 0.00 | 66 | 1016.5 |
| 20260510090303 | 61 | 193 | 2.0 | 5.0 | 0.00 | 0.00 | 0.00 | 65 | 1016.5 |
| 20260510090217 | 61 | 194 | 2.0 | 5.0 | 0.00 | 0.00 | 0.00 | 65 | 1016.4 |
| 20260510085703 | 61 | 183 | 2.0 | 5.0 | 0.00 | 0.00 | 0.00 | 65 | 1016.3 |
| 20260510085403 | 61 | 167 | 1.0 | 3.0 | 0.00 | 0.00 | 0.00 | 65 | 1016.2 |
| 20260510085318 | 61 | 163 | 1.0 | 3.0 | 0.00 | 0.00 | 0.00 | 65 | 1016.2 |
| 20260510084803 | 61 | 188 | 1.0 | 3.0 | 0.00 | 0.00 | 0.00 | 65 | 1016.1 |
| 20260510084503 | 61 | 189 | 2.0 | 3.0 | 0.00 | 0.00 | 0.00 | 64 | 1016.2 |
| 20260510084203 | 61 | 190 | 2.0 | 3.0 | 0.00 | 0.00 | 0.00 | 64 | 1016.2 |
| 20260510083903 | 62 | 188 | 1.0 | 3.0 | 0.00 | 0.00 | 0.00 | 63 | 1016.1 |
| 20260510083604 | 62 | 191 | 0.0 | 2.0 | 0.00 | 0.00 | 0.00 | 63 | 1016.1 |
| 20260510083303 | 62 | 196 | 0.0 | 2.0 | 0.00 | 0.00 | 0.00 | 63 | 1016.0 |
| 20260510083003 | 62 | 172 | 0.0 | 1.0 | 0.00 | 0.00 | 0.00 | 63 | 1016.0 |
| 20260510082917 | 62 | 172 | 0.0 | 1.0 | 0.00 | 0.00 | 0.00 | 63 | 1016.0 |
| 20260510082617 | 62 | 172 | 0.0 | 1.0 | 0.00 | 0.00 | 0.00 | 63 | 1015.8 |
| 20260510082103 | 62 | 176 | 0.0 | 1.0 | 0.00 | 0.00 | 0.00 | 63 | 1015.7 |
| 20260510081804 | 62 | 179 | 0.0 | 2.0 | 0.00 | 0.00 | 0.00 | 63 | 1015.7 |
| 20260510081503 | 62 | 187 | 0.0 | 4.0 | 0.00 | 0.00 | 0.00 | 63 | 1015.8 |
| 20260510081203 | 63 | 188 | 1.0 | 4.0 | 0.00 | 0.00 | 0.00 | 61 | 1015.9 |
| 20260510081118 | 62 | 189 | 1.0 | 4.0 | 0.00 | 0.00 | 0.00 | 61 | 1015.9 |
| 20260510080603 | 63 | 185 | 1.0 | 4.0 | 0.00 | 0.00 | 0.00 | 61 | 1015.9 |
| 20260510080303 | 63 | 182 | 1.0 | 2.0 | 0.00 | 0.00 | 0.00 | 61 | 1015.8 |
| 20260510080003 | 63 | 179 | 1.0 | 3.0 | 0.00 | 0.00 | 0.00 | 61 | 1015.7 |
| 20260510075703 | 63 | 188 | 1.0 | 5.0 | 0.00 | 0.00 | 0.00 | 61 | 1015.7 |
| 20260510075403 | 63 | 181 | 1.0 | 5.0 | 0.00 | 0.00 | 0.00 | 61 | 1015.7 |
| 20260510075317 | 63 | 181 | 1.0 | 5.0 | 0.00 | 0.00 | 0.00 | 61 | 1015.7 |
| 20260510074803 | 63 | 168 | 1.0 | 4.0 | 0.00 | 0.00 | 0.00 | 61 | 1015.5 |
| 20260510074503 | 63 | 172 | 0.0 | 4.0 | 0.00 | 0.00 | 0.00 | 62 | 1015.4 |
| 20260510074203 | 63 | 165 | 1.0 | 4.0 | 0.00 | 0.00 | 0.00 | 63 | 1015.2 |
| 20260510073903 | 63 | 165 | 1.0 | 4.0 | 0.00 | 0.00 | 0.00 | 62 | 1015.2 |
| 20260510073818 | 64 | 164 | 1.0 | 4.0 | 0.00 | 0.00 | 0.00 | 62 | 1015.1 |
| 20260510073303 | 64 | 175 | 2.0 | 8.0 | 0.00 | 0.00 | 0.00 | 63 | 1015.2 |
| 20260510073217 | 64 | 174 | 2.0 | 8.0 | 0.00 | 0.00 | 0.00 | 63 | 1015.2 |
| 20260510072704 | 64 | 168 | 2.0 | 8.0 | 0.00 | 0.00 | 0.00 | 63 | 1015.2 |
| 20260510072403 | 64 | 161 | 2.0 | 8.0 | 0.00 | 0.00 | 0.00 | 62 | 1015.2 |
| 20260510072103 | 64 | 163 | 1.0 | 7.0 | 0.00 | 0.00 | 0.00 | 62 | 1015.2 |
| 20260510071803 | 64 | 161 | 1.0 | 3.0 | 0.00 | 0.00 | 0.00 | 62 | 1015.0 |
| 20260510071503 | 65 | 163 | 0.0 | 3.0 | 0.00 | 0.00 | 0.00 | 62 | 1014.9 |
| 20260510071204 | 65 | 144 | 0.0 | 3.0 | 0.00 | 0.00 | 0.00 | 61 | 1014.9 |
| 20260510071118 | 65 | 143 | 0.0 | 3.0 | 0.00 | 0.00 | 0.00 | 61 | 1014.9 |
| 20260510070603 | 65 | 146 | 1.0 | 3.0 | 0.00 | 0.00 | 0.00 | 60 | 1014.7 |
| 20260510070303 | 65 | 149 | 1.0 | 5.0 | 0.00 | 0.00 | 0.00 | 60 | 1014.7 |
| 20260510070004 | 65 | 148 | 1.0 | 5.0 | 0.00 | 0.00 | 0.00 | 60 | 1014.8 |
| 20260510065703 | 65 | 148 | 1.0 | 5.0 | 0.00 | 0.00 | 0.00 | 61 | 1014.9 |
| 20260510065403 | 65 | 147 | 1.0 | 3.0 | 0.00 | 0.00 | 0.00 | 61 | 1014.8 |
| 20260510065103 | 65 | 149 | 1.0 | 2.0 | 0.00 | 0.00 | 0.00 | 61 | 1014.7 |
| 20260510064803 | 65 | 150 | 0.0 | 2.0 | 0.00 | 0.00 | 0.00 | 63 | 1014.7 |
| 20260510064503 | 65 | 163 | 0.0 | 3.0 | 0.00 | 0.00 | 0.00 | 63 | 1014.6 |
| 20260510064203 | 65 | 166 | 0.0 | 3.0 | 0.00 | 0.00 | 0.00 | 65 | 1014.5 |
| 20260510063903 | 65 | 162 | 1.0 | 3.0 | 0.00 | 0.00 | 0.00 | 65 | 1014.5 |
| 20260510063603 | 65 | 175 | 1.0 | 6.0 | 0.00 | 0.00 | 0.00 | 66 | 1014.7 |
| 20260510063303 | 65 | 165 | 1.0 | 6.0 | 0.00 | 0.00 | 0.00 | 66 | 1014.7 |
| 20260510063003 | 65 | 178 | 1.0 | 6.0 | 0.00 | 0.00 | 0.00 | 66 | 1014.7 |
| 20260510062703 | 65 | 182 | 2.0 | 6.0 | 0.00 | 0.00 | 0.00 | 66 | 1014.7 |
| 20260510062403 | 65 | 184 | 2.0 | 5.0 | 0.00 | 0.00 | 0.00 | 67 | 1014.8 |
| 20260510062318 | 65 | 186 | 2.0 | 5.0 | 0.00 | 0.00 | 0.00 | 66 | 1014.9 |
| 20260510061804 | 65 | 190 | 2.0 | 5.0 | 0.00 | 0.00 | 0.00 | 67 | 1014.9 |
| 20260510061504 | 65 | 189 | 2.0 | 5.0 | 0.00 | 0.00 | 0.00 | 67 | 1014.8 |
| 20260510061203 | 65 | 185 | 2.0 | 5.0 | 0.00 | 0.00 | 0.00 | 67 | 1014.8 |
| 20260510060903 | 65 | 181 | 1.0 | 5.0 | 0.00 | 0.00 | 0.00 | 67 | 1014.7 |
| 20260510060603 | 65 | 176 | 1.0 | 4.0 | 0.00 | 0.00 | 0.00 | 66 | 1014.7 |
| 20260510060303 | 65 | 176 | 1.0 | 4.0 | 0.00 | 0.00 | 0.00 | 66 | 1014.5 |
| 20260510060003 | 65 | 181 | 1.0 | 2.0 | 0.00 | 0.00 | 0.00 | 67 | 1014.6 |
| 20260510055704 | 65 | 188 | 1.0 | 3.0 | 0.00 | 0.00 | 0.00 | 66 | 1014.6 |
| 20260510055403 | 65 | 192 | 1.0 | 4.0 | 0.00 | 0.00 | 0.00 | 66 | 1014.5 |
| 20260510055103 | 65 | 192 | 1.0 | 4.0 | 0.00 | 0.00 | 0.00 | 66 | 1014.5 |
| 20260510054803 | 65 | 193 | 1.0 | 4.0 | 0.00 | 0.00 | 0.00 | 66 | 1014.4 |
| 20260510054503 | 65 | 194 | 1.0 | 4.0 | 0.00 | 0.00 | 0.00 | 66 | 1014.4 |
| 20260510054203 | 65 | 195 | 1.0 | 4.0 | 0.00 | 0.00 | 0.00 | 66 | 1014.3 |
| 20260510053903 | 66 | 195 | 1.0 | 4.0 | 0.00 | 0.00 | 0.00 | 65 | 1014.3 |
| 20260510053604 | 65 | 198 | 1.0 | 4.0 | 0.00 | 0.00 | 0.00 | 65 | 1014.4 |
| 20260510053519 | 65 | 198 | 0.0 | 4.0 | 0.00 | 0.00 | 0.00 | 65 | 1014.3 |
| 20260510053003 | 66 | 196 | 1.0 | 3.0 | 0.00 | 0.00 | 0.00 | 65 | 1014.2 |
| 20260510052703 | 66 | 196 | 1.0 | 3.0 | 0.00 | 0.00 | 0.00 | 65 | 1014.2 |
| 20260510052403 | 66 | 195 | 2.0 | 4.0 | 0.00 | 0.00 | 0.00 | 64 | 1014.1 |
| 20260510052104 | 66 | 194 | 2.0 | 4.0 | 0.00 | 0.00 | 0.00 | 64 | 1014.0 |
| 20260510051803 | 66 | 192 | 1.0 | 4.0 | 0.00 | 0.00 | 0.00 | 64 | 1014.1 |
| 20260510051503 | 66 | 186 | 1.0 | 3.0 | 0.00 | 0.00 | 0.00 | 64 | 1014.1 |
| 20260510051203 | 66 | 0 | 0.0 | 0.0 | 0.00 | 0.00 | 0.00 | 64 | 1014.0 |
| 20260510050903 | 66 | 0 | 0.0 | 0.0 | 0.00 | 0.00 | 0.00 | 63 | 1014.0 |
| 20260510050603 | 66 | 0 | 0.0 | 0.0 | 0.00 | 0.00 | 0.00 | 64 | 1014.0 |
| 20260510050303 | 66 | 0 | 0.0 | 0.0 | 0.00 | 0.00 | 0.00 | 64 | 1013.9 |
| 20260510050004 | 66 | 0 | 0.0 | 0.0 | 0.00 | 0.00 | 0.00 | 62 | 1013.8 |
| 20260510045703 | 66 | 0 | 0.0 | 0.0 | 0.00 | 0.00 | 0.00 | 63 | 1013.9 |
| 20260510045618 | 66 | 0 | 0.0 | 0.0 | 0.00 | 0.00 | 0.00 | 63 | 1013.9 |
| 20260510045103 | 67 | 0 | 0.0 | 0.0 | 0.00 | 0.00 | 0.00 | 62 | 1013.7 |
| 20260510044803 | 67 | 0 | 0.0 | 0.0 | 0.00 | 0.00 | 0.00 | 63 | 1013.7 |
| 20260510044503 | 67 | 0 | 0.0 | 0.0 | 0.00 | 0.00 | 0.00 | 63 | 1013.7 |
| 20260510044204 | 67 | 0 | 0.0 | 0.0 | 0.00 | 0.00 | 0.00 | 62 | 1013.6 |
| 20260510043903 | 67 | 0 | 0.0 | 0.0 | 0.00 | 0.00 | 0.00 | 61 | 1013.5 |
| 20260510043603 | 67 | 0 | 0.0 | 0.0 | 0.00 | 0.00 | 0.00 | 60 | 1013.3 |
| 20260510043303 | 67 | 0 | 0.0 | 0.0 | 0.00 | 0.00 | 0.00 | 60 | 1013.3 |
| 20260510043004 | 67 | 0 | 0.0 | 0.0 | 0.00 | 0.00 | 0.00 | 60 | 1013.3 |
| 20260510042704 | 67 | 0 | 0.0 | 0.0 | 0.00 | 0.00 | 0.00 | 61 | 1013.3 |
| 20260510042404 | 67 | 0 | 0.0 | 0.0 | 0.00 | 0.00 | 0.00 | 60 | 1013.3 |
| 20260510042317 | 68 | 0 | 0.0 | 0.0 | 0.00 | 0.00 | 0.00 | 60 | 1013.4 |
| 20260510041804 | 68 | 0 | 0.0 | 0.0 | 0.00 | 0.00 | 0.00 | 59 | 1013.4 |
| 20260510041717 | 68 | 0 | 0.0 | 0.0 | 0.00 | 0.00 | 0.00 | 59 | 1013.4 |
| 20260510041204 | 68 | 0 | 0.0 | 0.0 | 0.00 | 0.00 | 0.00 | 59 | 1013.6 |
| 20260510040903 | 68 | 173 | 0.0 | 1.0 | 0.00 | 0.00 | 0.00 | 58 | 1013.6 |
| 20260510040603 | 68 | 173 | 0.0 | 1.0 | 0.00 | 0.00 | 0.00 | 58 | 1013.6 |
| 20260510040518 | 68 | 173 | 0.0 | 1.0 | 0.00 | 0.00 | 0.00 | 58 | 1013.5 |
| 20260510040003 | 68 | 0 | 0.0 | 0.0 | 0.00 | 0.00 | 0.00 | 58 | 1013.4 |
| 20260510035703 | 68 | 153 | 0.0 | 1.0 | 0.00 | 0.00 | 0.00 | 57 | 1013.4 |
| 20260510035403 | 68 | 153 | 0.0 | 1.0 | 0.00 | 0.00 | 0.00 | 57 | 1013.3 |
| 20260510035103 | 68 | 153 | 0.0 | 1.0 | 0.00 | 0.00 | 0.00 | 58 | 1013.2 |
| 20260510034804 | 68 | 154 | 0.0 | 1.0 | 0.00 | 0.00 | 0.00 | 58 | 1013.2 |
| 20260510034503 | 68 | 155 | 0.0 | 1.0 | 0.00 | 0.00 | 0.00 | 57 | 1013.0 |
| 20260510034203 | 69 | 156 | 0.0 | 1.0 | 0.00 | 0.00 | 0.00 | 57 | 1012.8 |
| 20260510033903 | 69 | 177 | 0.0 | 1.0 | 0.00 | 0.00 | 0.00 | 56 | 1012.7 |
| 20260510033603 | 69 | 177 | 0.0 | 1.0 | 0.00 | 0.00 | 0.00 | 55 | 1012.5 |
| 20260510033303 | 69 | 0 | 0.0 | 0.0 | 0.00 | 0.00 | 0.00 | 54 | 1012.4 |
| 20260510033003 | 69 | 0 | 0.0 | 0.0 | 0.00 | 0.00 | 0.00 | 54 | 1012.3 |
| 20260510032703 | 69 | 0 | 0.0 | 0.0 | 0.00 | 0.00 | 0.00 | 54 | 1012.2 |
| 20260510032403 | 70 | 178 | 0.0 | 1.0 | 0.00 | 0.00 | 0.00 | 54 | 1012.1 |
| 20260510032317 | 70 | 178 | 0.0 | 1.0 | 0.00 | 0.00 | 0.00 | 54 | 1012.1 |
| 20260510031803 | 70 | 178 | 0.0 | 1.0 | 0.00 | 0.00 | 0.00 | 53 | 1012.1 |
| 20260510031716 | 70 | 177 | 0.0 | 1.0 | 0.00 | 0.00 | 0.00 | 53 | 1012.1 |
| 20260510031203 | 70 | 182 | 0.0 | 2.0 | 0.00 | 0.00 | 0.00 | 54 | 1012.1 |
| 20260510030904 | 70 | 181 | 0.0 | 2.0 | 0.00 | 0.00 | 0.00 | 53 | 1012.2 |
| 20260510030603 | 70 | 186 | 0.0 | 2.0 | 0.00 | 0.00 | 0.00 | 54 | 1012.2 |
| 20260510030303 | 70 | 184 | 0.0 | 3.0 | 0.00 | 0.00 | 0.00 | 54 | 1012.2 |
| 20260510030004 | 70 | 184 | 1.0 | 3.0 | 0.00 | 0.00 | 0.00 | 53 | 1012.2 |
| 20260510025703 | 71 | 185 | 1.0 | 3.0 | 0.00 | 0.00 | 0.00 | 52 | 1012.2 |
| 20260510025617 | 71 | 185 | 1.0 | 3.0 | 0.00 | 0.00 | 0.00 | 52 | 1012.2 |
| 20260510025104 | 71 | 190 | 1.0 | 4.0 | 0.00 | 0.00 | 0.00 | 52 | 1012.0 |
| 20260510024804 | 71 | 182 | 1.0 | 4.0 | 0.00 | 0.00 | 0.00 | 52 | 1011.9 |
| 20260510024504 | 71 | 179 | 1.0 | 4.0 | 0.00 | 0.00 | 0.00 | 52 | 1011.8 |
| 20260510024203 | 71 | 174 | 1.0 | 3.0 | 0.00 | 0.00 | 0.00 | 52 | 1011.7 |
| 20260510023903 | 71 | 182 | 1.0 | 3.0 | 0.00 | 0.00 | 0.00 | 52 | 1011.8 |
| 20260510023604 | 71 | 187 | 0.0 | 3.0 | 0.00 | 0.00 | 0.00 | 52 | 1011.8 |
| 20260510023303 | 71 | 167 | 0.0 | 3.0 | 0.00 | 0.00 | 0.00 | 52 | 1011.7 |
| 20260510023003 | 71 | 167 | 1.0 | 4.0 | 0.00 | 0.00 | 0.00 | 52 | 1011.6 |
| 20260510022703 | 71 | 170 | 1.0 | 4.0 | 0.00 | 0.00 | 0.00 | 51 | 1011.3 |
| 20260510022403 | 71 | 172 | 1.0 | 4.0 | 0.00 | 0.00 | 0.00 | 51 | 1011.3 |
| 20260510022103 | 71 | 175 | 1.0 | 4.0 | 0.00 | 0.00 | 0.00 | 51 | 1011.3 |
| 20260510021803 | 71 | 172 | 0.0 | 3.0 | 0.00 | 0.00 | 0.00 | 51 | 1011.1 |
| 20260510021503 | 71 | 175 | 0.0 | 2.0 | 0.00 | 0.00 | 0.00 | 52 | 1011.0 |
| 20260510021203 | 71 | 188 | 0.0 | 2.0 | 0.00 | 0.00 | 0.00 | 51 | 1011.0 |
| 20260510020903 | 72 | 188 | 0.0 | 2.0 | 0.00 | 0.00 | 0.00 | 50 | 1010.9 |
| 20260510020817 | 72 | 188 | 0.0 | 2.0 | 0.00 | 0.00 | 0.00 | 50 | 1010.9 |
| 20260510020517 | 72 | 188 | 0.0 | 2.0 | 0.00 | 0.00 | 0.00 | 50 | 1010.8 |
| 20260510020004 | 72 | 179 | 1.0 | 4.0 | 0.00 | 0.00 | 0.00 | 49 | 1010.7 |
| 20260510015703 | 73 | 180 | 1.0 | 4.0 | 0.00 | 0.00 | 0.00 | 48 | 1010.6 |
| 20260510015617 | 73 | 178 | 1.0 | 4.0 | 0.00 | 0.00 | 0.00 | 48 | 1010.6 |
| 20260510015103 | 73 | 182 | 1.0 | 4.0 | 0.00 | 0.00 | 0.00 | 48 | 1010.6 |
| 20260510014803 | 73 | 176 | 1.0 | 4.0 | 0.00 | 0.00 | 0.00 | 47 | 1010.5 |
| 20260510014718 | 73 | 172 | 2.0 | 4.0 | 0.00 | 0.00 | 0.00 | 47 | 1010.5 |
| 20260510014204 | 74 | 176 | 2.0 | 4.0 | 0.00 | 0.00 | 0.00 | 47 | 1010.3 |
| 20260510013903 | 74 | 177 | 2.0 | 8.0 | 0.00 | 0.00 | 0.00 | 46 | 1010.2 |
| 20260510013817 | 74 | 183 | 2.0 | 8.0 | 0.00 | 0.00 | 0.00 | 46 | 1010.2 |
| 20260510013303 | 74 | 169 | 3.0 | 8.0 | 0.00 | 0.00 | 0.00 | 46 | 1010.3 |
| 20260510013003 | 74 | 175 | 3.0 | 8.0 | 0.00 | 0.00 | 0.00 | 46 | 1010.3 |
| 20260510012919 | 74 | 175 | 2.0 | 8.0 | 0.00 | 0.00 | 0.00 | 45 | 1010.3 |
| 20260510012403 | 75 | 207 | 3.0 | 11.0 | 0.00 | 0.00 | 0.00 | 45 | 1010.3 |
| 20260510012103 | 75 | 224 | 3.0 | 11.0 | 0.00 | 0.00 | 0.00 | 45 | 1010.3 |
| 20260510012018 | 75 | 223 | 4.0 | 11.0 | 0.00 | 0.00 | 0.00 | 45 | 1010.2 |
| 20260510011504 | 76 | 270 | 4.0 | 9.0 | 0.00 | 0.00 | 0.00 | 45 | 1010.1 |
| 20260510011203 | 76 | 292 | 4.0 | 10.0 | 0.00 | 0.00 | 0.00 | 45 | 1010.1 |
| 20260510010903 | 76 | 264 | 4.0 | 10.0 | 0.00 | 0.00 | 0.00 | 45 | 1009.9 |
| 20260510010604 | 76 | 230 | 2.0 | 10.0 | 0.00 | 0.00 | 0.00 | 45 | 1009.9 |
| 20260510010303 | 76 | 182 | 1.0 | 8.0 | 0.00 | 0.00 | 0.00 | 47 | 1009.7 |
| 20260510010003 | 77 | 180 | 0.0 | 2.0 | 0.00 | 0.00 | 0.00 | 47 | 1009.6 |
| 20260510005703 | 77 | 188 | 0.0 | 2.0 | 0.00 | 0.00 | 0.00 | 46 | 1009.5 |
| 20260510005403 | 78 | 189 | 0.0 | 3.0 | 0.00 | 0.00 | 0.00 | 46 | 1009.4 |
| 20260510005103 | 78 | 188 | 0.0 | 3.0 | 0.00 | 0.00 | 0.00 | 46 | 1009.4 |
| 20260510004804 | 78 | 187 | 1.0 | 5.0 | 0.00 | 0.00 | 0.00 | 45 | 1009.4 |
| 20260510004503 | 79 | 187 | 2.0 | 6.0 | 0.00 | 0.00 | 0.00 | 45 | 1009.4 |
| 20260510004203 | 79 | 187 | 2.0 | 6.0 | 0.00 | 0.00 | 0.00 | 45 | 1009.3 |
| 20260510003904 | 80 | 188 | 2.0 | 6.0 | 0.00 | 0.00 | 0.00 | 44 | 1009.2 |
| 20260510003604 | 80 | 183 | 1.0 | 5.0 | 0.00 | 0.00 | 0.00 | 43 | 1009.1 |
| 20260510003304 | 82 | 178 | 0.0 | 2.0 | 0.00 | 0.00 | 0.00 | 41 | 1009.0 |
| 20260510003004 | 83 | 198 | 0.0 | 2.0 | 0.00 | 0.00 | 0.00 | 41 | 1008.9 |
| 20260510002704 | 84 | 196 | 0.0 | 2.0 | 0.00 | 0.00 | 0.00 | 40 | 1008.8 |
| 20260510002404 | 84 | 196 | 1.0 | 2.0 | 0.00 | 0.00 | 0.00 | 39 | 1008.8 |
| 20260510002103 | 84 | 196 | 1.0 | 2.0 | 0.00 | 0.00 | 0.00 | 39 | 1008.7 |
| 20260510002018 | 84 | 196 | 1.0 | 2.0 | 0.00 | 0.00 | 0.00 | 38 | 1008.7 |
| 20260510001718 | 85 | 197 | 1.0 | 3.0 | 0.00 | 0.00 | 0.00 | 39 | 1008.7 |
| 20260510001417 | 85 | 200 | 1.0 | 3.0 | 0.00 | 0.00 | 0.00 | 38 | 1008.7 |
| 20260510000903 | 85 | 203 | 1.0 | 3.0 | 0.00 | 0.00 | 0.00 | 38 | 1008.7 |
| 20260510000603 | 86 | 209 | 0.0 | 3.0 | 0.00 | 0.00 | 0.00 | 38 | 1008.6 |
| 20260510000304 | 86 | 0 | 0.0 | 0.0 | 0.00 | 0.00 | 0.00 | 38 | 1008.6 |
| 20260510000003 | 86 | 0 | 0.0 | 0.0 | 0.00 | 0.00 | 0.00 | 37 | 1008.6 |
| 20260509235703 | 85 | 0 | 0.0 | 0.0 | 0.00 | 0.00 | 0.00 | 38 | 1008.6 |
| 20260509235403 | 84 | 0 | 0.0 | 0.0 | 0.00 | 0.00 | 0.00 | 40 | 1008.6 |
| 20260509235103 | 83 | 0 | 0.0 | 0.0 | 0.00 | 0.00 | 0.00 | 41 | 1008.6 |
| 20260509234803 | 83 | 0 | 0.0 | 0.0 | 0.00 | 0.00 | 0.00 | 40 | 1008.7 |
| 20260509234717 | 82 | 0 | 0.0 | 0.0 | 0.00 | 0.00 | 0.00 | 40 | 1008.6 |
| 20260509234203 | 82 | 0 | 0.0 | 0.0 | 0.00 | 0.00 | 0.00 | 39 | 1008.6 |
| 20260509233903 | 82 | 0 | 0.0 | 0.0 | 0.00 | 0.00 | 0.00 | 39 | 1008.6 |
| 20260509233603 | 82 | 190 | 0.0 | 2.0 | 0.00 | 0.00 | 0.00 | 39 | 1008.6 |
| 20260509233303 | 82 | 190 | 0.0 | 2.0 | 0.00 | 0.00 | 0.00 | 40 | 1008.6 |
| 20260509233003 | 82 | 192 | 1.0 | 2.0 | 0.00 | 0.00 | 0.00 | 40 | 1008.6 |
| 20260509232703 | 82 | 195 | 1.0 | 3.0 | 0.00 | 0.00 | 0.00 | 39 | 1008.6 |
| 20260509232403 | 82 | 200 | 1.0 | 4.0 | 0.00 | 0.00 | 0.00 | 38 | 1008.6 |
| 20260509232104 | 82 | 204 | 1.0 | 5.0 | 0.00 | 0.00 | 0.00 | 38 | 1008.6 |
| 20260509231803 | 82 | 203 | 1.0 | 5.0 | 0.00 | 0.00 | 0.00 | 38 | 1008.6 |
| 20260509231503 | 82 | 202 | 2.0 | 5.0 | 0.00 | 0.00 | 0.00 | 37 | 1008.6 |
| 20260509231203 | 83 | 197 | 2.0 | 4.0 | 0.00 | 0.00 | 0.00 | 38 | 1008.6 |
| 20260509230903 | 83 | 200 | 2.0 | 4.0 | 0.00 | 0.00 | 0.00 | 38 | 1008.6 |
| 20260509230603 | 83 | 201 | 2.0 | 4.0 | 0.00 | 0.00 | 0.00 | 37 | 1008.6 |
| 20260509230303 | 83 | 205 | 2.0 | 5.0 | 0.00 | 0.00 | 0.00 | 38 | 1008.6 |
| 20260509230003 | 83 | 211 | 2.0 | 7.0 | 0.00 | 0.00 | 0.00 | 38 | 1008.6 |
| 20260509225703 | 83 | 215 | 2.0 | 7.0 | 0.00 | 0.00 | 0.00 | 38 | 1008.6 |